Location: Unspecified
(0.0000°N, 0.0000°E)
Time: 11:04:11
(UTC+01:00)

BREEZE-M DEB (TANK) - Visible Passes

Search period start: 31 January 2015 00:00
Search period end: 10 February 2015 00:00
Orbit: 319 x 16409 km, 49.4° (Epoch: 29 January)

Date Brightness Start Highest point End Pass type
(mag) Time Alt. Az. Time Alt. Az. Time Alt. Az.
31 Jan 6.1 05:20:51 35° W 05:29:05 47° NNW 07:04:44 10° NNE visible
01 Feb 6.7 06:06:05 18° W 06:23:59 36° NNW 08:39:50 10° NE visible
02 Feb 7.2 01:54:14 21° ENE 01:54:14 21° ENE 02:07:10 10° ENE visible
03 Feb 6.7 02:39:22 39° ENE 02:39:22 39° ENE 03:07:55 10° NE visible
04 Feb 6.3 03:24:28 57° NE 03:24:28 57° NE 04:09:18 10° NE visible
05 Feb 6.3 04:09:32 58° NNW 04:09:32 58° NNW 05:13:31 10° NNE visible
06 Feb 6.5 04:54:33 42° NW 04:58:03 44° NNW 06:25:59 10° NNE visible
07 Feb 6.9 05:39:32 26° WNW 05:53:02 33° NNW 08:05:17 10° NE visible
08 Feb 7.7 01:27:28 16° ENE 01:27:28 16° ENE 01:34:18 10° NE visible
08 Feb 7.3 06:24:27 12° WNW 06:56:34 26° NNW 09:49:31 10° ENE visible
09 Feb 7.3 02:12:21 29° NE 02:12:21 29° NE 02:33:17 10° NE visible
